GW5408 Weather Reports


time (UTC)temp
C
wind
direction
speed
KPH
gust
KPH
rain 1hr
cm
rain 24hr
cm
rain mn
cm
humidity
%
barometer
mb
20260505084021 13 0 1.6 6.4 0.00 0.00 0.00 46 1012.4
20260505083524 13 104 0.0 4.8 0.00 0.00 0.00 47 1012.3
20260505083055 13 0 0.0 8.0 0.00 0.00 0.00 50 1012.2
20260505082525 13 50 1.6 8.0 0.00 0.00 0.00 49 1012.4
20260505082021 13 24 1.6 8.0 0.00 0.00 0.00 48 1012.2
20260505081540 13 0 1.6 6.4 0.00 0.00 0.00 48 1012.2
20260505081024 13 5 0.0 6.4 0.00 0.00 0.00 48 1012.0
20260505080520 13 54 1.6 6.4 0.00 0.00 0.00 50 1012.0
20260505080038 13 0 0.0 8.0 0.00 0.00 0.00 47 1012.0
20260505075520 13 45 3.2 8.0 0.00 0.00 0.00 48 1012.1
20260505075020 13 0 0.0 6.4 0.00 0.00 0.00 47 1012.0
20260505074536 13 0 0.0 8.0 0.00 0.00 0.00 48 1011.9
20260505074021 13 26 0.0 9.7 0.00 0.00 0.00 47 1011.8
20260505073520 13 173 0.0 9.7 0.00 0.00 0.00 48 1011.9
20260505073035 13 0 1.6 9.7 0.00 0.00 0.00 49 1011.8
20260505072521 13 0 0.0 6.4 0.00 0.00 0.00 47 1011.7
20260505072020 14 0 0.0 6.4 0.00 0.00 0.00 48 1011.8
20260505071539 14 330 0.0 6.4 0.00 0.00 0.00 46 1011.7
20260505071020 14 0 0.0 6.4 0.00 0.00 0.00 46 1011.7
20260505070524 14 218 1.6 6.4 0.00 0.00 0.00 47 1011.5
20260505070042 13 123 0.0 8.0 0.00 0.00 0.00 49 1011.5
20260505065520 13 0 0.0 8.0 0.00 0.00 0.00 50 1011.5
20260505065021 13 210 1.6 6.4 0.00 0.00 0.00 51 1011.4
20260505064558 13 0 0.0 1.6 0.00 0.00 0.00 52 1011.4
20260505064020 13 0 0.0 3.2 0.00 0.00 0.00 51 1011.4
20260505063521 13 197 0.0 3.2 0.00 0.00 0.00 49 1011.4
20260505063035 14 0 0.0 1.6 0.00 0.00 0.00 49 1011.3
20260505062523 14 0 0.0 4.8 0.00 0.00 0.00 49 1011.3
20260505062021 15 163 0.0 4.8 0.00 0.00 0.00 48 1011.2
20260505061542 15 214 0.0 8.0 0.00 0.00 0.00 47 1011.2
20260505061021 15 0 0.0 8.0 0.00 0.00 0.00 48 1011.2
20260505060521 15 0 0.0 3.2 0.00 0.00 0.00 48 1011.1
20260505060041 14 187 0.0 4.8 0.00 0.00 0.00 48 1011.1
20260505055521 15 192 0.0 4.8 0.00 0.00 0.00 48 1011.0
20260505055022 15 157 0.0 3.2 0.00 0.00 0.00 48 1011.1
20260505054547 15 0 0.0 3.2 0.00 0.00 0.00 46 1011.0
20260505054020 15 0 0.0 3.2 0.00 0.00 0.00 47 1011.1
20260505053523 15 181 0.0 3.2 0.00 0.00 0.00 46 1011.0
20260505053037 15 176 0.0 8.0 0.00 0.00 0.00 47 1011.0
20260505052520 15 0 1.6 8.0 0.00 0.00 0.00 45 1011.0
20260505052020 15 0 0.0 8.0 0.00 0.00 0.00 48 1010.8
20260505051541 15 145 0.0 1.6 0.00 0.00 0.00 47 1010.8
20260505051021 15 0 0.0 1.6 0.00 0.00 0.00 47 1010.8
20260505050520 15 0 0.0 1.6 0.00 0.00 0.00 45 1010.8
20260505041534 15 0 0.0 1.6 0.00 0.00 0.00 47 1010.1
20260505041020 16 0 0.0 1.6 0.00 0.00 0.00 45 1010.0
20260505040520 16 0 0.0 1.6 0.00 0.00 0.00 45 1009.9
20260505040053 16 193 0.0 3.2 0.00 0.00 0.00 45 1009.9
20260505035522 16 181 0.0 3.2 0.00 0.00 0.00 45 1009.8
20260505035020 16 178 1.6 3.2 0.00 0.00 0.00 46 1009.8
20260505034552 16 174 0.0 3.2 0.00 0.00 0.00 45 1009.7
20260505034020 16 180 0.0 1.6 0.00 0.00 0.00 44 1009.6
20260505033521 16 0 0.0 1.6 0.00 0.00 0.00 43 1009.6
20260505033042 17 0 0.0 1.6 0.00 0.00 0.00 44 1009.5
20260505032522 17 0 0.0 1.6 0.00 0.00 0.00 42 1009.4
20260505032020 17 180 0.0 3.2 0.00 0.00 0.00 41 1009.3
20260505031535 17 180 1.6 3.2 0.00 0.00 0.00 42 1009.3
20260505031020 17 0 1.6 3.2 0.00 0.00 0.00 42 1009.3
20260505030520 17 185 1.6 3.2 0.00 0.00 0.00 41 1009.3
20260505030045 17 178 1.6 3.2 0.00 0.00 0.00 40 1009.2
20260505025521 17 196 1.6 3.2 0.00 0.00 0.00 40 1009.1
20260505025020 17 190 1.6 3.2 0.00 0.00 0.00 40 1009.3
20260505024541 17 188 1.6 3.2 0.00 0.00 0.00 40 1009.3
20260505024021 18 185 1.6 3.2 0.00 0.00 0.00 40 1009.2
20260505023521 18 185 1.6 3.2 0.00 0.00 0.00 40 1009.1
20260505023044 18 178 0.0 3.2 0.00 0.00 0.00 38 1009.1
20260505022521 18 176 0.0 3.2 0.00 0.00 0.00 37 1009.1
20260505022021 18 190 0.0 3.2 0.00 0.00 0.00 38 1009.0
20260505021539 18 180 1.6 3.2 0.00 0.00 0.00 38 1009.0
20260505021024 18 195 0.0 4.8 0.00 0.00 0.00 37 1009.1
20260505020521 19 180 1.6 6.4 0.00 0.00 0.00 37 1009.1
20260505020051 19 204 1.6 6.4 0.00 0.00 0.00 38 1009.0
20260505015521 19 0 0.0 4.8 0.00 0.00 0.00 38 1009.1
20260505015021 19 181 0.0 4.8 0.00 0.00 0.00 37 1009.0
20260505014539 19 201 1.6 4.8 0.00 0.00 0.00 39 1009.0
20260505014020 20 0 1.6 4.8 0.00 0.00 0.00 37 1009.0
20260505013522 20 183 0.0 6.4 0.00 0.00 0.00 37 1009.0
20260505013042 20 134 1.6 6.4 0.00 0.00 0.00 38 1009.1
20260505012522 20 0 0.0 6.4 0.00 0.00 0.00 38 1009.0
20260505012021 20 221 0.0 6.4 0.00 0.00 0.00 36 1009.0
20260505011540 20 175 1.6 9.7 0.00 0.00 0.00 34 1009.0
20260505011019 21 197 1.6 9.7 0.00 0.00 0.00 36 1009.1
20260505010521 21 171 1.6 9.7 0.00 0.00 0.00 36 1009.0
20260505010047 21 176 4.8 8.0 0.00 0.00 0.00 34 1009.1
20260505005521 21 209 1.6 11.3 0.00 0.00 0.00 35 1009.2
20260505005021 21 0 1.6 11.3 0.00 0.00 0.00 34 1009.1
20260505004555 21 194 3.2 8.0 0.00 0.00 0.00 33 1009.0
20260505004021 21 277 3.2 9.7 0.00 0.00 0.00 33 1009.2
20260505003525 21 133 1.6 9.7 0.00 0.00 0.00 33 1009.2
20260505003035 21 244 0.0 9.7 0.00 0.00 0.00 35 1009.3
20260505002521 21 194 1.6 9.7 0.00 0.00 0.00 31 1009.2
20260505002020 21 182 0.0 4.8 0.00 0.00 0.00 33 1009.2
20260505001541 22 0 0.0 4.8 0.00 0.00 0.00 31 1009.2
20260505001022 22 180 3.2 4.8 0.00 0.00 0.00 33 1009.3
20260505000520 22 194 1.6 6.4 0.00 0.00 0.00 34 1009.2
20260505000039 22 206 1.6 6.4 0.00 0.00 0.00 31 1009.2
20260504235520 22 294 1.6 6.4 0.00 0.00 0.00 32 1009.3
20260504235020 23 0 1.6 9.7 0.00 0.00 0.00 30 1009.3
20260504234537 23 309 1.6 9.7 0.00 0.00 0.00 31 1009.3
20260504234019 23 327 1.6 9.7 0.00 0.00 0.00 31 1009.2
20260504233521 23 360 1.6 11.3 0.00 0.00 0.00 30 1009.3
20260504233035 23 183 1.6 11.3 0.00 0.00 0.00 29 1009.3
20260504232520 23 306 3.2 14.5 0.00 0.00 0.00 31 1009.3
20260504232020 23 313 4.8 14.5 0.00 0.00 0.00 33 1009.4
20260504231540 23 153 1.6 8.0 0.00 0.00 0.00 30 1009.3
20260504231020 23 168 0.0 8.0 0.00 0.00 0.00 32 1009.3
20260504230524 23 0 1.6 11.3 0.00 0.00 0.00 32 1009.4
20260504230040 23 315 1.6 11.3 0.00 0.00 0.00 32 1009.4
20260504225518 23 14 3.2 9.7 0.00 0.00 0.00 32 1009.5
20260504225020 23 296 3.2 9.7 0.00 0.00 0.00 32 1009.5
20260504224543 23 202 1.6 19.3 0.00 0.00 0.00 31 1009.4
20260504224020 23 319 3.2 19.3 0.00 0.00 0.00 30 1009.6
20260504223520 23 0 3.2 9.7 0.00 0.00 0.00 31 1009.8
20260504223040 23 0 3.2 12.9 0.00 0.00 0.00 31 1009.9
20260504222519 23 0 3.2 12.9 0.00 0.00 0.00 32 1009.9
20260504222020 23 302 3.2 12.9 0.00 0.00 0.00 30 1009.8
20260504221549 23 346 3.2 9.7 0.00 0.00 0.00 31 1009.8
20260504221019 23 337 3.2 9.7 0.00 0.00 0.00 31 1009.9
20260504220520 23 146 1.6 11.3 0.00 0.00 0.00 30 1009.9
20260504220035 23 172 1.6 11.3 0.00 0.00 0.00 31 1009.9
20260504215521 23 273 4.8 11.3 0.00 0.00 0.00 30 1010.0
20260504215021 23 320 1.6 9.7 0.00 0.00 0.00 32 1009.9
20260504214540 23 144 3.2 9.7 0.00 0.00 0.00 30 1010.0
20260504214020 23 209 1.6 9.7 0.00 0.00 0.00 30 1010.0
20260504213520 23 230 1.6 9.7 0.00 0.00 0.00 31 1010.0
20260504213044 23 60 1.6 6.4 0.00 0.00 0.00 33 1010.0
20260504212521 23 267 1.6 9.7 0.00 0.00 0.00 31 1010.2
20260504212020 23 337 3.2 14.5 0.00 0.00 0.00 31 1010.2
20260504211539 23 318 4.8 14.5 0.00 0.00 0.00 31 1010.1
20260504211019 23 353 1.6 9.7 0.00 0.00 0.00 33 1010.0
20260504210520 23 353 1.6 11.3 0.00 0.00 0.00 32 1010.0
20260504210046 22 276 1.6 11.3 0.00 0.00 0.00 33 1010.2
20260504205521 22 315 3.2 11.3 0.00 0.00 0.00 31 1010.2
20260504205024 22 301 3.2 11.3 0.00 0.00 0.00 32 1010.4
20260504204535 22 329 3.2 9.7 0.00 0.00 0.00 33 1010.3
20260504204020 22 337 3.2 9.7 0.00 0.00 0.00 32 1010.4
20260504203520 22 325 1.6 6.4 0.00 0.00 0.00 30 1010.4
20260504203044 22 327 1.6 6.4 0.00 0.00 0.00 34 1010.3
20260504202520 22 293 1.6 9.7 0.00 0.00 0.00 33 1010.4
20260504202019 22 297 3.2 9.7 0.00 0.00 0.00 32 1010.4
20260504201544 22 113 1.6 8.0 0.00 0.00 0.00 32 1010.4
20260504201020 22 322 3.2 8.0 0.00 0.00 0.00 33 1010.5
20260504200520 21 327 3.2 14.5 0.00 0.00 0.00 33 1010.5
20260504200039 21 323 3.2 14.5 0.00 0.00 0.00 34 1010.4
20260504195519 21 356 4.8 9.7 0.00 0.00 0.00 32 1010.5
20260504195020 22 124 3.2 8.0 0.00 0.00 0.00 31 1010.4
20260504194535 21 266 3.2 12.9 0.00 0.00 0.00 39 1010.5
20260504194020 21 299 4.8 12.9 0.00 0.00 0.00 32 1010.6
20260504193521 21 310 6.4 12.9 0.00 0.00 0.00 32 1010.6
20260504193047 21 323 3.2 9.7 0.00 0.00 0.00 32 1010.6
20260504192520 21 327 4.8 9.7 0.00 0.00 0.00 32 1010.5
20260504192023 21 353 3.2 9.7 0.00 0.00 0.00 34 1010.6
20260504191606 21 303 3.2 17.7 0.00 0.00 0.00 33 1010.7
20260504191020 21 209 3.2 17.7 0.00 0.00 0.00 34 1010.7
20260504190520 21 322 4.8 14.5 0.00 0.00 0.00 32 1010.7
20260504190041 21 306 6.4 14.5 0.00 0.00 0.00 33 1010.6
20260504185520 21 307 3.2 14.5 0.00 0.00 0.00 35 1010.7
20260504185019 21 129 3.2 9.7 0.00 0.00 0.00 34 1010.7
20260504184550 21 158 3.2 12.9 0.00 0.00 0.00 35 1010.7
20260504184020 20 280 3.2 12.9 0.00 0.00 0.00 37 1010.8
20260504183520 21 312 3.2 12.9 0.00 0.00 0.00 35 1010.7
20260504183035 21 300 6.4 12.9 0.00 0.00 0.00 36 1010.7
20260504182524 21 311 1.6 9.7 0.00 0.00 0.00 33 1010.8
20260504182019 20 147 1.6 12.9 0.00 0.00 0.00 36 1010.8
20260504181535 20 331 3.2 14.5 0.00 0.00 0.00 35 1010.8
20260504181021 20 6 6.4 14.5 0.00 0.00 0.00 34 1010.7
20260504180520 20 275 3.2 12.9 0.00 0.00 0.00 35 1010.7
20260504180043 20 289 4.8 12.9 0.00 0.00 0.00 34 1010.7
20260504175521 20 348 3.2 16.1 0.00 0.00 0.00 34 1010.7
20260504175022 20 108 3.2 16.1 0.00 0.00 0.00 38 1010.7
20260504174539 20 292 4.8 9.7 0.00 0.00 0.00 37 1010.7
20260504174020 20 280 1.6 6.4 0.00 0.00 0.00 35 1010.6
20260504173521 20 183 1.6 6.4 0.00 0.00 0.00 37 1010.6
20260504173038 20 196 3.2 12.9 0.00 0.00 0.00 36 1010.4
20260504172520 19 262 3.2 12.9 0.00 0.00 0.00 35 1010.4
20260504172021 19 220 1.6 16.1 0.00 0.00 0.00 36 1010.4
20260504171539 19 244 3.2 16.1 0.00 0.00 0.00 36 1010.3
20260504171023 18 263 3.2 20.9 0.00 0.00 0.00 39 1010.3
20260504170519 18 312 6.4 20.9 0.00 0.00 0.00 37 1010.4
20260504151019 15 138 0.0 9.7 0.00 0.00 0.00 54 1010.2
20260504150524 15 112 3.2 11.3 0.00 0.00 0.00 50 1010.4
20260504141024 10 0 0.0 6.4 0.00 0.00 0.00 65 1010.2
20260504140520 10 0 0.0 6.4 0.00 0.00 0.00 69 1010.2
20260504130518 8 223 0.0 1.6 0.00 0.00 0.00 74 1009.5
20260504110521 8 237 0.0 1.6 0.00 0.00 0.00 72 1009.0
20260504100525 9 237 0.0 1.6 0.00 0.00 0.00 70 1009.3